TimeMDT,TemperatureF,Dew PointF,Humidity,Sea Level PressureIn,VisibilityMPH,Wind Direction,Wind SpeedMPH,Gust SpeedMPH,PrecipitationIn,Events,Conditions,WindDirDegrees,DateUTC
12:11 AM,46.4,44.6,93,29.96,9.0,West,12.7,-,N/A,,Overcast,280,2013-10-14 06:11:00
12:39 AM,46.4,42.8,87,29.95,10.0,WNW,15.0,-,N/A,,Overcast,300,2013-10-14 06:39:00
12:53 AM,45.0,43.0,93,29.89,10.0,NW,10.4,-,N/A,,Mostly Cloudy,310,2013-10-14 06:53:00
1:53 AM,45.0,43.0,93,29.90,5.0,West,10.4,-,0.00,Rain,Light Rain,280,2013-10-14 07:53:00
2:10 AM,44.6,44.6,100,29.96,2.0,West,4.6,-,N/A,Rain,Rain,270,2013-10-14 08:10:00
2:19 AM,44.6,44.6,100,29.96,1.8,NW,6.9,-,N/A,Rain,Heavy Rain,310,2013-10-14 08:19:00
2:29 AM,44.6,44.6,100,29.94,2.5,North,3.5,-,N/A,Rain,Rain,10,2013-10-14 08:29:00
2:37 AM,44.6,44.6,100,29.92,4.0,NNE,8.1,-,N/A,Rain,Rain,30,2013-10-14 08:37:00
2:53 AM,46.0,42.1,86,29.82,10.0,NE,8.1,-,N/A,Rain,Light Rain,50,2013-10-14 08:53:00
3:19 AM,44.6,42.8,93,29.93,10.0,NW,15.0,-,N/A,,Overcast,320,2013-10-14 09:19:00
3:26 AM,44.6,42.8,93,29.92,10.0,NNW,15.0,-,N/A,,Overcast,330,2013-10-14 09:26:00
3:53 AM,43.0,41.0,93,29.84,10.0,NNW,13.8,-,N/A,,Overcast,340,2013-10-14 09:53:00
4:53 AM,42.1,41.0,96,29.87,8.0,NW,17.3,-,N/A,,Overcast,310,2013-10-14 10:53:00
5:33 AM,41.0,39.2,93,29.93,2.5,NW,16.1,-,N/A,Rain,Light Rain,310,2013-10-14 11:33:00
5:40 AM,41.0,39.2,93,29.93,4.0,NW,13.8,-,N/A,Rain,Light Rain,310,2013-10-14 11:40:00
5:53 AM,41.0,39.9,96,29.89,4.0,WNW,15.0,-,N/A,Rain,Light Rain,300,2013-10-14 11:53:00
6:10 AM,41.0,39.2,93,29.94,5.0,NW,13.8,-,N/A,Rain,Light Rain,310,2013-10-14 12:10:00
6:28 AM,39.2,39.2,100,29.94,7.0,NW,17.3,-,N/A,Rain,Light Rain,320,2013-10-14 12:28:00
6:37 AM,39.2,37.4,93,29.94,5.0,NW,18.4,24.2,N/A,Rain,Rain,320,2013-10-14 12:37:00
6:53 AM,39.0,37.0,93,29.91,6.0,NW,20.7,-,N/A,Rain,Rain,320,2013-10-14 12:53:00
7:05 AM,39.2,37.4,93,29.94,6.0,NW,21.9,27.6,N/A,Rain,Rain,320,2013-10-14 13:05:00
7:12 AM,39.2,35.6,87,29.95,7.0,NNW,19.6,31.1,N/A,Rain,Light Rain,330,2013-10-14 13:12:00
7:20 AM,37.4,35.6,93,29.95,8.0,NW,16.1,27.6,N/A,Rain,Light Rain,320,2013-10-14 13:20:00
7:31 AM,37.4,35.6,93,29.96,10.0,NW,16.1,28.8,N/A,Rain,Light Rain,320,2013-10-14 13:31:00
7:53 AM,37.0,35.1,93,29.94,7.0,NW,18.4,-,N/A,Rain,Light Rain,310,2013-10-14 13:53:00
8:21 AM,33.8,33.8,100,29.98,2.5,NW,16.1,-,N/A,Snow,Light Snow,310,2013-10-14 14:21:00
8:25 AM,33.8,32.0,93,29.98,1.2,NW,15.0,-,N/A,Snow,Light Snow,310,2013-10-14 14:25:00
8:30 AM,33.8,32.0,93,29.98,1.0,NW,15.0,-,N/A,Snow,Light Snow,310,2013-10-14 14:30:00
8:39 AM,33.8,32.0,93,29.99,0.5,WNW,17.3,-,N/A,Fog-Snow,Snow,300,2013-10-14 14:39:00
8:53 AM,32.0,30.9,96,29.99,0.5,WNW,18.4,-,N/A,Fog-Snow,Snow,300,2013-10-14 14:53:00
9:53 AM,32.0,30.9,96,30.02,0.5,WNW,13.8,24.2,N/A,Fog-Snow,Snow,300,2013-10-14 15:53:00
10:32 AM,32.0,30.2,93,30.02,0.2,WNW,17.3,25.3,N/A,Fog-Snow,Heavy Snow,300,2013-10-14 16:32:00
10:53 AM,32.0,30.9,96,30.04,0.2,WNW,21.9,28.8,N/A,Fog-Snow,Heavy Snow,300,2013-10-14 16:53:00
11:53 AM,32.0,32.0,100,30.06,0.2,NW,21.9,26.5,N/A,Fog-Snow,Heavy Snow,310,2013-10-14 17:53:00
12:18 PM,33.8,33.8,100,30.05,0.5,NW,19.6,-,N/A,Fog-Snow,Snow,310,2013-10-14 18:18:00
12:29 PM,33.8,30.2,87,30.05,1.0,NW,19.6,-,N/A,Snow,Light Snow,310,2013-10-14 18:29:00
12:53 PM,33.1,30.9,92,30.07,1.8,NW,20.7,-,N/A,Snow,Light Snow,310,2013-10-14 18:53:00
12:59 PM,33.8,30.2,87,30.05,2.5,NW,19.6,27.6,N/A,Snow,Light Snow,310,2013-10-14 18:59:00
1:09 PM,33.8,30.2,87,30.05,1.8,NW,23.0,27.6,N/A,Snow,Light Snow,310,2013-10-14 19:09:00
1:18 PM,33.8,30.2,87,30.05,1.8,NW,20.7,27.6,N/A,Snow,Light Snow,310,2013-10-14 19:18:00
1:53 PM,33.1,30.9,92,30.08,1.2,NW,24.2,27.6,N/A,Snow,Light Snow,320,2013-10-14 19:53:00
1:58 PM,33.8,30.2,87,30.07,2.0,NW,21.9,29.9,N/A,Snow,Light Snow,310,2013-10-14 19:58:00
2:10 PM,33.8,30.2,87,30.07,1.8,NW,23.0,33.4,N/A,Snow,Light Snow,320,2013-10-14 20:10:00
2:17 PM,33.8,32.0,93,30.08,1.5,NW,17.3,26.5,N/A,Snow,Light Snow,310,2013-10-14 20:17:00
2:26 PM,33.8,32.0,93,30.07,2.5,NW,24.2,29.9,N/A,Snow,Light Snow,320,2013-10-14 20:26:00
2:33 PM,33.8,33.8,100,30.08,5.0,NW,21.9,32.2,N/A,Snow,Light Snow,320,2013-10-14 20:33:00
2:53 PM,34.0,-9999,N/A,30.10,10.0,NW,26.5,33.4,N/A,,Overcast,320,2013-10-14 20:53:00
3:53 PM,34.0,-9999,N/A,30.12,10.0,NW,28.8,36.8,N/A,,Overcast,320,2013-10-14 21:53:00
4:40 PM,33.8,-9999,N/A,30.13,2.5,NW,25.3,34.5,N/A,Snow,Light Snow,320,2013-10-14 22:40:00
4:53 PM,33.1,32.0,96,30.17,2.0,NW,27.6,40.3,N/A,Snow,Light Snow,320,2013-10-14 22:53:00
5:07 PM,33.8,30.2,87,30.15,5.0,NW,24.2,35.7,N/A,Snow,Light Snow,320,2013-10-14 23:07:00
5:53 PM,33.1,28.9,85,30.21,10.0,NW,21.9,31.1,N/A,Snow,Light Snow,320,2013-10-14 23:53:00
6:53 PM,33.1,28.0,82,30.24,10.0,NW,24.2,32.2,N/A,,Overcast,320,2013-10-15 00:53:00
7:43 PM,32.0,28.4,87,30.21,2.5,NW,18.4,-,N/A,Snow,Light Snow,310,2013-10-15 01:43:00
7:51 PM,32.0,28.4,87,30.22,3.0,NW,21.9,28.8,N/A,Snow,Light Snow,320,2013-10-15 01:51:00
7:53 PM,32.0,28.9,88,30.27,3.0,NW,23.0,32.2,N/A,Snow,Light Snow,320,2013-10-15 01:53:00
8:11 PM,32.0,28.4,87,30.22,2.5,NW,17.3,-,N/A,Snow,Light Snow,310,2013-10-15 02:11:00
8:29 PM,32.0,28.4,87,30.23,3.0,NW,19.6,-,N/A,Snow,Light Snow,310,2013-10-15 02:29:00
8:45 PM,32.0,28.4,87,30.24,4.0,NW,20.7,27.6,N/A,Snow,Light Snow,320,2013-10-15 02:45:00
8:53 PM,32.0,28.9,88,30.32,6.0,NW,21.9,28.8,N/A,Snow,Light Snow,310,2013-10-15 02:53:00
9:53 PM,32.0,28.0,85,30.33,4.0,NW,23.0,33.4,N/A,Snow,Light Snow,310,2013-10-15 03:53:00
10:53 PM,30.9,28.0,89,30.35,5.0,NW,25.3,-,N/A,Snow,Light Snow,320,2013-10-15 04:53:00
11:06 PM,30.2,26.6,86,30.27,4.0,NW,24.2,34.5,N/A,Snow,Light Snow,320,2013-10-15 05:06:00
11:20 PM,30.2,26.6,86,30.28,6.0,NW,23.0,31.1,N/A,Snow,Light Snow,320,2013-10-15 05:20:00
11:53 PM,30.0,27.0,88,30.37,6.0,NW,21.9,-,N/A,Snow,Light Snow,320,2013-10-15 05:53:00